Weather History for Gulfport, MS

Change the Weather History Date:

Friday, October 26, 2012

  Actual Average Record
Temperature  
Mean Temperature 71 °F -  
Max Temperature 84 °F 75 °F 86 °F (2010)
Min Temperature 60 °F 54 °F 38 °F (1955)
Cooling Degree Days 6    
Growing Degree Days 21 (Base 50)    
Moisture  
Dew Point 63 °F    
Average Humidity 87    
Maximum Humidity 100    
Minimum Humidity 44    
Precipitation  
Precipitation 0.01 in - - ()
Sea Level Pressure  
Sea Level Pressure 29.93 in    
Wind  
Wind Speed 2 mph (North)    
Max Wind Speed 15 mph    
Max Gust Speed 21 mph    
Visibility 5 miles    
Events Fog    
Averages and records for this station are not official NWS values.
T = Trace of Precipitation, MM = Missing Value Source: NWS Daily Summary

Daily Weather History Graph

Daily Weather History Graph

Search for Another Location

Airport:

Trip Planner

Search our weather history database for the weather conditions in past years. The results will help you decide how hot, cold, wet, or windy it might be!

Date:

Astronomy

Oct. 26, 2012 Rise Set
Actual Time 7:06 AM CDT 6:13 PM CDT
Civil Twilight 6:41 AM CDT 6:37 PM CDT
Nautical Twilight 6:13 AM CDT 7:06 PM CDT
Astronomical Twilight 5:45 AM CDT 7:34 PM CDT
Moon 4:20 PM CDT (10/26) 4:13 AM CDT (10/26)
Length of Visible Light 11h 56m
Length of Day
11h 06m
Waxing Gibbous, 91% of the Moon is Illuminated
Oct 26
Waxing Gibbous
Oct 29
Full
Nov 6
Last Quarter
Nov 13
New
Nov 20
First Quarter

Hourly Weather History & Observations

Time (CDT) Temp. Heat Index Dew Point Humidity Pressure Visibility Wind Dir Wind Speed Gust Speed Precip Events Conditions
12:53 AM 66.9 °F - 66.0 °F 97% 29.94 in 1.2 mi Calm Calm - N/A   Partly Cloudy
12:57 AM 66.2 °F - 64.4 °F 94% 29.94 in 0.8 mi Calm Calm - N/A   Mist
1:05 AM 66.2 °F - 66.2 °F 100% 29.94 in 1.2 mi Calm Calm - N/A   Partly Cloudy
1:18 AM 66.2 °F - 66.2 °F 100% 29.94 in 0.8 mi Calm Calm - N/A   Mist
1:29 AM 66.2 °F - 66.2 °F 100% 29.93 in 1.2 mi Calm Calm - N/A   Scattered Clouds
1:32 AM 66.2 °F - 66.2 °F 100% 29.93 in 0.8 mi Calm Calm - N/A   Mist
1:53 AM 66.0 °F - 66.0 °F 100% 29.93 in 0.8 mi Calm Calm - N/A   Mist
2:09 AM 64.4 °F - 64.4 °F 100% 29.93 in 0.2 mi NNW 3.5 mph - N/A Fog Fog
2:17 AM 64.4 °F - 64.4 °F 100% 29.93 in 1.0 mi Calm Calm - N/A   Mist
2:19 AM 64.4 °F - 64.4 °F 100% 29.93 in 2.0 mi Calm Calm - N/A   Scattered Clouds
2:26 AM 64.4 °F - 64.4 °F 100% 29.93 in 4.0 mi Calm Calm - N/A   Scattered Clouds
2:33 AM 64.4 °F - 64.4 °F 100% 29.93 in 1.8 mi Calm Calm - N/A   Partly Cloudy
2:41 AM 64.4 °F - 64.4 °F 100% 29.93 in 0.8 mi Calm Calm - N/A   Mist
2:53 AM 64.9 °F - 64.0 °F 97% 29.93 in 0.2 mi Calm Calm - N/A Fog Fog
3:06 AM 64.4 °F - 64.4 °F 100% 29.93 in 1.0 mi Calm Calm - N/A   Mist
3:21 AM 64.4 °F - 64.4 °F 100% 29.93 in 0.8 mi Calm Calm - N/A   Mist
3:35 AM 64.4 °F - 62.6 °F 94% 29.93 in 0.2 mi Calm Calm - N/A Fog Fog
3:48 AM 64.4 °F - 64.4 °F 100% 29.93 in 1.0 mi Calm Calm - N/A   Mist
3:53 AM 64.0 °F - 64.0 °F 100% 29.93 in 2.5 mi Calm Calm - N/A   Scattered Clouds
4:13 AM 64.4 °F - 64.4 °F 100% 29.93 in 4.0 mi Calm Calm - N/A   Clear
4:34 AM 62.6 °F - 62.6 °F 100% 29.93 in 2.0 mi Calm Calm - N/A   Scattered Clouds
4:36 AM 62.6 °F - 62.6 °F 100% 29.93 in 0.8 mi Calm Calm - N/A   Mist
4:46 AM 62.6 °F - 60.8 °F 94% 29.93 in 0.2 mi Calm Calm - N/A Fog Fog
4:53 AM 61.0 °F - 61.0 °F 100% 29.93 in 0.5 mi Calm Calm - N/A Fog Fog
4:56 AM 60.8 °F - 60.8 °F 100% 29.93 in 1.5 mi Calm Calm - N/A   Scattered Clouds
4:58 AM 60.8 °F - 60.8 °F 100% 29.93 in 3.0 mi Calm Calm - N/A   Scattered Clouds
5:53 AM 63.0 °F - 63.0 °F 100% 29.93 in 6.0 mi Calm Calm - N/A   Clear
6:53 AM 62.1 °F - 61.0 °F 96% 29.94 in 7.0 mi Calm Calm - N/A   Clear
7:53 AM 64.0 °F - 63.0 °F 96% 29.96 in 8.0 mi Calm Calm - 0.01 in   Clear
8:53 AM 66.9 °F - 64.9 °F 93% 29.98 in 10.0 mi North 8.1 mph - N/A   Clear
9:53 AM 73.0 °F - 64.9 °F 76% 29.99 in 10.0 mi North 6.9 mph - N/A   Clear
10:53 AM 78.1 °F - 63.0 °F 60% 29.99 in 10.0 mi NNE 8.1 mph - N/A   Clear
11:53 AM 81.0 °F 81.9 °F 62.1 °F 52% 29.97 in 10.0 mi NNE 10.4 mph - N/A   Clear
12:53 PM 82.9 °F 83.3 °F 61.0 °F 47% 29.94 in 10.0 mi NE 9.2 mph - N/A   Partly Cloudy
1:53 PM 82.9 °F 83.2 °F 60.1 °F 46% 29.93 in 10.0 mi North 9.2 mph - N/A   Scattered Clouds
2:53 PM 82.9 °F 83.2 °F 60.1 °F 46% 29.91 in 10.0 mi North 6.9 mph - N/A   Scattered Clouds
3:53 PM 82.9 °F 82.8 °F 59.0 °F 44% 29.90 in 10.0 mi NNW 10.4 mph - N/A   Partly Cloudy
4:53 PM 82.0 °F 82.4 °F 60.1 °F 47% 29.89 in 10.0 mi North 6.9 mph - N/A   Clear
5:53 PM 79.0 °F - 60.1 °F 52% 29.89 in 10.0 mi North 6.9 mph - N/A   Clear
6:53 PM 72.0 °F - 63.0 °F 73% 29.91 in 9.0 mi NW 4.6 mph - N/A   Clear
7:53 PM 70.0 °F - 63.0 °F 78% 29.92 in 10.0 mi NNW 4.6 mph - N/A   Clear
8:53 PM 71.1 °F - 62.1 °F 73% 29.93 in 10.0 mi NNW 8.1 mph - N/A   Clear
9:53 PM 70.0 °F - 63.0 °F 78% 29.94 in 10.0 mi NNW 13.8 mph 20.7 mph N/A   Clear
10:53 PM 66.2 °F - 60.8 °F 83% 29.95 in 10.0 mi NNW 8.1 mph - N/A   Clear
11:53 PM 62.1 °F - 57.0 °F 84% 29.96 in 10.0 mi NNW 15.0 mph - N/A   Scattered Clouds